This is the latest recevied weather packets stored in our database for station/object vk4zu-13. If no packets are shown the sender has not sent any weather packets the latest 10 day(s).
| Time | Temp. | Humidity | Pressure | Rain* | Wind** | Luminosity | Snow |
|---|---|---|---|---|---|---|---|
| 1777516377 | 21.67° C | 82% | 1025.5 hPa | 0.51 mm | - | 216 W/m² | - |
| 1777516306 | 21.67° C | 79% | 1025.5 hPa | 0.51 mm | - | 193 W/m² | - |
| 1777516239 | 21.67° C | 79% | 1025.5 hPa | 0.51 mm | - | 234 W/m² | - |
| 1777516179 | 21.67° C | 78% | 1025.5 hPa | 0.51 mm | - | 195 W/m² | - |
| 1777516120 | 21.67° C | 79% | 1025.6 hPa | 0.51 mm | - | 178 W/m² | - |
| 1777516057 | 22.22° C | 78% | 1025.8 hPa | 0.51 mm | - | 162 W/m² | - |
| 1777515994 | 22.22° C | 78% | 1025.6 hPa | 0.51 mm | - | 165 W/m² | - |
| 1777515943 | 22.78° C | 77% | 1025.7 hPa | 0.76 mm | - | 171 W/m² | - |
| 1777515854 | 22.78° C | 77% | 1025.7 hPa | 0.76 mm | - | 176 W/m² | - |
| 1777515786 | 23.33° C | 80% | 1025.8 hPa | 0.76 mm | - | 186 W/m² | - |
| 1777515714 | 23.33° C | 80% | 1025.8 hPa | 0.76 mm | - | 230 W/m² | - |
| 1777515648 | 23.33° C | 79% | 1025.8 hPa | 1.02 mm | - | 272 W/m² | - |
| 1777515574 | 23.33° C | 78% | 1025.7 hPa | 1.27 mm | - | 339 W/m² | - |
| 1777515505 | 23.33° C | 76% | 1025.7 hPa | 1.27 mm | - | 965 W/m² | - |
| 1777515435 | 23.33° C | 77% | 1025.7 hPa | 1.27 mm | - | 965 W/m² | - |
| 1777515364 | 23.33° C | 82% | 1025.8 hPa | 1.52 mm | - | 914 W/m² | - |
| 1777515296 | 22.78° C | 80% | 1025.7 hPa | 1.52 mm | - | 889 W/m² | - |
| 1777515224 | 22.78° C | 81% | 1025.7 hPa | 1.52 mm | - | 784 W/m² | - |
| 1777515154 | 22.78° C | 82% | 1025.7 hPa | 1.52 mm | - | 758 W/m² | - |
| 1777515084 | 22.78° C | 83% | 1025.8 hPa | 1.78 mm | - | 772 W/m² | - |
| 1777515023 | 22.22° C | 80% | 1025.8 hPa | 1.78 mm | - | 763 W/m² | - |
| 1777514962 | 22.22° C | 80% | 1025.9 hPa | 2.03 mm | - | 178 W/m² | - |
| 1777514893 | 22.22° C | 80% | 1025.7 hPa | 2.29 mm | - | 178 W/m² | - |
| 1777514822 | 22.78° C | 80% | 1025.9 hPa | 2.29 mm | - | 178 W/m² | - |
| 1777514753 | 22.78° C | 83% | 1025.8 hPa | 2.29 mm | - | 536 W/m² | - |
* Rain latest hour (hover to see other rain measurements)
** Current wind speed in m/s (hover to see current wind gust speed)